This demonstration page uses our WeatherBlox Daily Observations layout. Learn more.

Left ArrowRight Arrow

Hourly Observations for January 8, 2020

Temp ( °F °C ) Dew Point ( °F °C ) Humidity (%) Winds ( mph kmh ) Pressure ( in mb ) Visibility ( mi km ) Precip ( " mm )
12:53 am 00:53 Clear 40 4.4 28 -2.2 63 63 Calm 30.30 1026 10 16 0.00 0.00
1:53 am 01:53 Clear 39 3.9 27 -2.8 62 62 SSE 3 6 30.29 1026 10 16 0.00 0.00
2:53 am 02:53 Clear 36 2.2 27 -2.8 70 70 Calm 30.32 1027 10 16 0.00 0.00
3:53 am 03:53 Clear 38 3.3 26 -3.3 62 62 Calm 30.31 1027 10 16 0.00 0.00
4:53 am 04:53 Clear 33 0.6 28 -2.2 82 82 Calm 30.33 1027 10 16 0.00 0.00
5:53 am 05:53 Clear 37 2.8 25 -3.9 62 62 Calm 30.35 1028 10 16 0.00 0.00
6:53 am 06:53 Clear 37 2.8 25 -3.9 62 62 Calm 30.39 1029 10 16 0.00 0.00
7:53 am 07:53 Sunny 37 2.8 25 -3.9 62 62 Calm 30.41 1030 10 16 0.00 0.00
8:53 am 08:53 Sunny 40 4.4 27 -2.8 60 60 Calm 30.43 1030 10 16 0.00 0.00
9:53 am 09:53 Sunny 44 6.7 28 -2.2 53 53 Calm 30.45 1031 10 16 0.00 0.00
10:53 am 10:53 Sunny 50 10 27 -2.8 41 41 NW 7 11 30.45 1031 10 16 0.00 0.00
11:53 am 11:53 Sunny 55 12.8 26 -3.3 33 33 NW 6 9 30.44 1031 10 16 0.00 0.00
12:53 pm 12:53 Sunny 57 13.9 23 -5 27 27 WNW 9 15 30.41 1030 10 16 0.00 0.00
1:53 pm 13:53 Sunny 59 15 22 -5.6 24 24 NNW 7 11 30.39 1029 10 16 0.00 0.00
2:53 pm 14:53 Sunny 60 15.6 22 -5.6 23 23 Calm 30.38 1029 10 16 0.00 0.00
3:53 pm 15:53 Sunny 60 15.6 21 -6.1 22 22 W 5 7 30.39 1029 10 16 0.00 0.00
4:53 pm 16:53 Sunny 60 15.6 22 -5.6 23 23 NW 6 9 30.40 1030 10 16 0.00 0.00
5:53 pm 17:53 Clear 56 13.3 22 -5.6 27 27 Calm 30.41 1030 10 16 0.00 0.00
6:53 pm 18:53 Clear 49 9.4 28 -2.2 44 44 Calm 30.43 1031 10 16 0.00 0.00
7:53 pm 19:53 Clear 45 7.2 28 -2.2 52 52 Calm 30.44 1031 10 16 0.00 0.00
8:53 pm 20:53 Clear 41 5 29 -1.7 62 62 Calm 30.45 1031 10 16 0.00 0.00
9:53 pm 21:53 Clear 39 3.9 30 -1.1 70 70 Calm 30.45 1031 10 16 0.00 0.00
10:53 pm 22:53 Clear 37 2.8 30 -1.1 76 76 Calm 30.45 1031 10 16 0.00 0.00
11:53 pm 23:53 Clear 35 1.7 29 -1.7 78 78 Calm 30.45 1031 10 16 0.00 0.00

Powered by AerisWeather